Fort Indiantown Gap, PA

1:16 AM EST on November 20, 2019 (GMT -0500)
Muir Army Air Field

Weather History for KMUI - October, 2019

Change the Weather History Date:

Monday, October 21, 2019

  Actual Average Record
Temperature  
Mean Temperature 56 °F -  
Max Temperature 66 °F 59 °F 77 °F (2016)
Min Temperature 46 °F 42 °F 31 °F (2008)
Degree Days  
Heating Degree Days 9    
Growing Degree Days 6 (Base 50)    
Moisture  
Dew Point 48 °F    
Average Humidity 81    
Maximum Humidity 100    
Minimum Humidity 54    
Precipitation  
Precipitation 0.00 in - - ()
Sea Level Pressure  
Sea Level Pressure 30.07 in    
Wind  
Wind Speed 3 mph (NE)    
Max Wind Speed 6 mph    
Max Gust Speed -    
Visibility 10 miles    
Events      
Averages and records for this station are not official NWS values.
T = Trace of Precipitation, MM = Missing Value Source: NWS Daily Summary

Daily Weather History Graph

Daily Weather History Graph

Search for Another Location

Airport or City:

Astronomy

Oct. 21, 2019 Rise Set
Actual Time 7:23 AM EDT 6:17 PM EDT
Civil Twilight 6:55 AM EDT 6:45 PM EDT
Nautical Twilight 6:23 AM EDT 7:17 PM EDT
Astronomical Twilight 5:52 AM EDT 7:48 PM EDT
Moon No Moon Rise 2:40 PM EDT (10/21)
Length of Visible Light 11h 49m
Length of Day
10h 54m
Waning Gibbous, 48% of the Moon is Illuminated
Oct 21
Waning Gibbous
Oct 27
New
Nov 4
First Quarter
Nov 12
Full
Nov 19
Last Quarter

Hourly Weather History & Observations

Time (EDT) Temp. Dew Point Humidity Pressure Visibility Wind Dir Wind Speed Gust Speed Precip Events Conditions
12:56 AM 50.0 °F 47.5 °F 91% 30.03 in 10.0 mi North 3.5 mph - N/A   Partly Cloudy
1:12 AM 50.0 °F 48.2 °F 94% 30.04 in 10.0 mi North 4.6 mph - N/A   Mostly Cloudy
1:28 AM 50.0 °F 48.2 °F 94% 30.04 in 10.0 mi North 4.6 mph - N/A   Scattered Clouds
1:56 AM 48.9 °F 46.4 °F 91% 30.04 in 10.0 mi NNE 3.5 mph - N/A   Clear
2:28 AM 48.2 °F 48.2 °F 100% 30.04 in 10.0 mi Calm Calm - N/A   Mostly Cloudy
2:56 AM 48.6 °F 46.9 °F 94% 30.04 in 10.0 mi Calm Calm - N/A   Overcast
3:28 AM 48.2 °F 46.4 °F 93% 30.04 in 8.0 mi Calm Calm - N/A   Scattered Clouds
3:56 AM 46.8 °F 45.7 °F 96% 30.04 in 10.0 mi North 4.6 mph - N/A   Scattered Clouds
4:03 AM 48.2 °F 46.4 °F 93% 30.04 in 10.0 mi North 3.5 mph - N/A   Mostly Cloudy
4:56 AM 50.0 °F 47.1 °F 90% 30.06 in 10.0 mi Calm Calm - N/A   Overcast
5:04 AM 50.0 °F 48.2 °F 94% 30.06 in 10.0 mi Calm Calm - N/A   Overcast
5:56 AM 49.6 °F 47.5 °F 92% 30.06 in 10.0 mi South 3.5 mph - N/A   Overcast
6:56 AM 49.6 °F 47.7 °F 93% 30.07 in 10.0 mi Calm Calm - N/A   Overcast
7:56 AM 50.7 °F 47.8 °F 90% 30.09 in 10.0 mi NNE 3.5 mph - N/A   Overcast
9:52 AM 53.6 °F 46.4 °F 77% 30.14 in 10.0 mi NNW 5.8 mph - N/A   Mostly Cloudy
9:56 AM 53.1 °F 47.1 °F 80% 30.14 in 10.0 mi Calm Calm - N/A   Mostly Cloudy
10:53 AM 57.2 °F 48.2 °F 72% 30.12 in 10.0 mi NE 3.5 mph - N/A   Scattered Clouds
10:56 AM 57.2 °F 48.6 °F 73% 30.12 in 10.0 mi NNE 3.5 mph - N/A   Scattered Clouds
11:56 AM 59.0 °F 48.4 °F 68% 30.12 in 10.0 mi Calm Calm - N/A   Partly Cloudy
12:56 PM 61.9 °F 48.7 °F 62% 30.09 in 10.0 mi Calm Calm - N/A   Partly Cloudy
1:56 PM 63.9 °F 48.7 °F 58% 30.07 in 10.0 mi ESE 3.5 mph - N/A   Clear
2:56 PM 65.7 °F 49.1 °F 55% 30.06 in 10.0 mi Calm Calm - N/A   Clear
3:56 PM 66.6 °F 49.5 °F 54% 30.05 in 7.0 mi East 5.8 mph - N/A   Clear
4:56 PM 66.0 °F 49.5 °F 55% 30.05 in 10.0 mi SE 5.8 mph - N/A   Clear
5:56 PM 64.2 °F 49.1 °F 58% 30.04 in 10.0 mi East 4.6 mph - N/A   Clear
6:56 PM 56.1 °F 50.7 °F 82% 30.06 in 10.0 mi Calm Calm - N/A   Clear
7:56 PM 53.4 °F 49.3 °F 86% 30.09 in 10.0 mi NE 3.5 mph - N/A   Clear
8:56 PM 54.9 °F 48.7 °F 80% 30.08 in 10.0 mi Calm Calm - N/A   Clear
9:56 PM 55.0 °F 48.9 °F 80% 30.09 in 10.0 mi Calm Calm - N/A   Scattered Clouds
10:56 PM 54.1 °F 48.7 °F 82% 30.10 in 10.0 mi Calm Calm - N/A   Partly Cloudy
11:56 PM 54.9 °F 49.1 °F 81% 30.09 in 10.0 mi ENE 3.5 mph - N/A   Overcast